User: anonymous   Login
Location: Melbourne
(37.8170°S, 144.9670°E)
Time: 14:11:17
(UTC+10:00)
Language:

ERBS - Orbit

View from above orbital plane
View from above orbital plane
View from above satellite
View from above satellite

Ground track
Ground track

The orbit data is extracted from the following two-line orbital elements,

1 15354U 84108B   15147.45434741  .00005192  00000-0  15744-3 0  9990
2 15354 057.0103 118.3838 0018675 110.4953 249.8105 15.35686864682375
Epoch (UTC): 27 May 2015 10:54:15
Eccentricity: 0.0018675
inclination: 57.0103°
perigee height: 446 km
apogee height: 471 km
right ascension of ascending node: 118.3838°
argument of perigee: 110.4953°
revolutions per day: 15.35686864
mean anomaly at epoch: 249.8105°
orbit number at epoch: 68237

The dashed part of the orbit path shows where the satellite is in the earth's shadow,  

DLR